User: anonymous   Login
Location: Les Thiberg�res
(47.8554°N, 1.0978°W)
Time: 21:46:28
(UTC+00:00)
Language:

STARLINK-1167 - Orbit

View from above orbital plane
View from above orbital plane
View from above satellite
View from above satellite

Ground track
Ground track

The orbit data is extracted from the following two-line orbital elements,

1 45071U 20006AD  20158.58334491 -.00012209 +00000-0 -81965-3 0  9996
2 45071 053.0004 343.3397 0001798 099.7648 171.3020 15.05601714001758
Epoch (UTC): 06 June 2020 14:00:01
Eccentricity: 0.0001798
inclination: 53.0004°
perigee height: 548 km
apogee height: 551 km
right ascension of ascending node: 343.3397°
argument of perigee: 99.7648°
revolutions per day: 15.05601714
mean anomaly at epoch: 171.3020°
orbit number at epoch: 175

The dashed part of the orbit path shows where the satellite is in the earth's shadow,  

DLR